�������l�o���
Date,Time,MP-1(��Sv/h),MP-2(��Sv/h),MP-3(��Sv/h),MP-4(��Sv/h),MP-5(��Sv/h),MP-6(��Sv/h),MP-7(��Sv/h),MP-8(��Sv/h),����,����(m/s),���J
2017/03/23,00:00,1.011,1.669,1.128,1.969,1.360,0.542,0.998,0.927,���쐼,6.1,��
2017/03/23,00:10,1.012,1.668,1.132,1.968,1.360,0.543,0.996,0.925,��,6.3,��
2017/03/23,00:20,1.011,1.670,1.132,1.965,1.359,0.543,0.997,0.927,��,6.3,��
2017/03/23,00:30,1.012,1.665,1.129,1.968,1.358,0.542,0.997,0.927,��,5.9,��
2017/03/23,00:40,1.014,1.670,1.129,1.970,1.361,0.543,0.997,0.927,���k��,3.5,��
2017/03/23,00:50,1.012,1.667,1.130,1.965,1.357,0.543,0.996,0.928,�k��,2.6,��
2017/03/23,01:00,1.014,1.668,1.129,1.965,1.361,0.543,0.998,0.926,���k��,2.8,��
2017/03/23,01:10,1.012,1.668,1.131,1.968,1.359,0.544,0.993,0.926,��,3.8,��
2017/03/23,01:20,1.012,1.666,1.129,1.966,1.359,0.542,0.997,0.928,���k��,2.0,��
2017/03/23,01:30,1.013,1.669,1.129,1.969,1.359,0.543,0.998,0.926,��,2.3,��
2017/03/23,01:40,1.013,1.664,1.128,1.969,1.361,0.544,0.995,0.927,���k��,3.7,��
2017/03/23,01:50,1.012,1.667,1.129,1.967,1.360,0.544,0.996,0.925,���k��,4.1,��
2017/03/23,02:00,1.012,1.668,1.128,1.969,1.359,0.542,0.997,0.927,���쐼,3.4,��
2017/03/23,02:10,1.012,1.668,1.128,1.966,1.359,0.543,0.996,0.926,��,3.9,��
2017/03/23,02:20,1.012,1.667,1.130,1.967,1.360,0.543,0.997,0.926,��,4.7,��
2017/03/23,02:30,1.012,1.666,1.130,1.967,1.360,0.543,0.997,0.926,��,4.3,��
2017/03/23,02:40,1.014,1.665,1.127,1.970,1.358,0.544,0.998,0.926,��,4.8,��
2017/03/23,02:50,1.013,1.669,1.129,1.964,1.358,0.544,0.996,0.928,��,4.1,��
2017/03/23,03:00,1.011,1.663,1.128,1.969,1.357,0.543,0.997,0.928,��,4.5,��
2017/03/23,03:10,1.013,1.666,1.126,1.969,1.361,0.543,0.998,0.925,��,4.9,��
2017/03/23,03:20,1.013,1.667,1.128,1.966,1.359,0.541,0.999,0.926,��,5.0,��
2017/03/23,03:30,1.013,1.667,1.128,1.969,1.359,0.543,0.997,0.926,��,4.4,��
2017/03/23,03:40,1.012,1.666,1.129,1.972,1.357,0.543,0.997,0.926,��,4.9,��
2017/03/23,03:50,1.013,1.665,1.129,1.969,1.360,0.544,0.996,0.926,���쐼,5.3,��
2017/03/23,04:00,1.012,1.665,1.128,1.968,1.359,0.542,0.995,0.929,���쐼,5.5,��
2017/03/23,04:10,1.011,1.668,1.130,1.970,1.359,0.542,0.999,0.925,���쐼,4.7,��
2017/03/23,04:20,1.012,1.666,1.129,1.967,1.359,0.542,0.998,0.927,��,4.7,��
2017/03/23,04:30,1.014,1.668,1.130,1.967,1.360,0.544,0.997,0.927,��,5.7,��
2017/03/23,04:40,1.012,1.667,1.128,1.968,1.359,0.543,0.996,0.926,��,5.2,��
2017/03/23,04:50,1.012,1.667,1.128,1.967,1.358,0.545,0.999,0.927,���쐼,5.3,��
2017/03/23,05:00,1.011,1.666,1.128,1.968,1.359,0.542,0.999,0.927,���쐼,5.7,��
2017/03/23,05:10,1.014,1.665,1.129,1.968,1.358,0.544,0.997,0.927,���쐼,6.7,��
2017/03/23,05:20,1.012,1.667,1.131,1.965,1.359,0.544,0.998,0.928,���쐼,7.1,��
2017/03/23,05:30,1.011,1.668,1.130,1.970,1.360,0.542,0.998,0.927,���쐼,7.3,��
2017/03/23,05:40,1.010,1.666,1.130,1.970,1.359,0.541,0.998,0.928,��,6.2,��
2017/03/23,05:50,1.014,1.668,1.131,1.967,1.358,0.544,1.000,0.926,��,6.5,��
2017/03/23,06:00,1.011,1.667,1.130,1.968,1.358,0.542,0.997,0.927,��,5.9,��
2017/03/23,06:10,1.012,1.666,1.132,1.971,1.359,0.544,0.998,0.927,��,5.6,��
2017/03/23,06:20,1.012,1.667,1.129,1.969,1.360,0.544,0.997,0.928,��,6.0,��
2017/03/23,06:30,1.012,1.667,1.131,1.970,1.361,0.545,1.001,0.926,��,6.3,��
2017/03/23,06:40,1.012,1.668,1.129,1.970,1.357,0.543,0.999,0.929,��,5.6,��
2017/03/23,06:50,1.014,1.668,1.131,1.968,1.362,0.543,0.997,0.929,��,5.1,��
2017/03/23,07:00,1.012,1.669,1.131,1.970,1.361,0.544,0.997,0.928,��,5.7,��
2017/03/23,07:10,1.013,1.671,1.132,1.968,1.361,0.544,1.000,0.928,��,5.0,��
2017/03/23,07:20,1.014,1.670,1.133,1.972,1.363,0.543,0.998,0.928,��,4.6,��
2017/03/23,07:30,1.013,1.668,1.131,1.973,1.363,0.545,0.998,0.929,��,5.0,��
2017/03/23,07:40,1.014,1.672,1.133,1.970,1.360,0.544,1.000,0.930,���k��,3.8,��
2017/03/23,07:50,1.015,1.672,1.134,1.971,1.360,0.544,0.999,0.929,��,3.2,��
2017/03/23,08:00,1.016,1.671,1.133,1.973,1.362,0.543,1.001,0.927,��,3.2,��
2017/03/23,08:10,1.015,1.671,1.134,1.972,1.361,0.543,1.000,0.929,��,4.7,��
2017/03/23,08:20,1.016,1.672,1.135,1.973,1.361,0.544,1.003,0.930,���k��,5.2,��
2017/03/23,08:30,1.015,1.666,1.135,1.972,1.362,0.543,0.998,0.929,���k��,7.2,��
2017/03/23,08:40,1.018,1.671,1.135,1.974,1.360,0.545,0.998,0.929,��,4.5,��
2017/03/23,08:50,1.017,1.673,1.138,1.975,1.361,0.545,0.998,0.929,��,6.6,��
2017/03/23,09:00,1.019,1.668,1.136,1.975,1.360,0.545,0.997,0.930,��,6.4,��
2017/03/23,09:10,1.017,1.670,1.137,1.975,1.362,0.546,0.998,0.931,��,5.3,��
2017/03/23,09:20,1.018,1.673,1.131,1.977,1.361,0.546,0.999,0.931,���k��,5.7,��
2017/03/23,09:30,1.019,1.671,1.129,1.975,1.364,0.547,0.998,0.929,��,7.0,��
2017/03/23,09:40,1.018,1.669,1.130,1.975,1.365,0.546,0.998,0.928,��,6.0,��
2017/03/23,09:50,1.021,1.670,1.131,1.976,1.365,0.546,1.000,0.929,���k��,5.8,��
2017/03/23,10:00,1.020,1.671,1.131,1.975,1.365,0.545,0.998,0.929,���k��,5.8,��
2017/03/23,10:10,1.019,1.672,1.131,1.976,1.367,0.545,1.000,0.929,�k��,3.6,��
2017/03/23,10:20,1.020,1.669,1.133,1.978,1.368,0.546,0.999,0.928,���k��,3.4,��
2017/03/23,10:30,1.024,1.672,1.134,1.977,1.365,0.544,0.999,0.931,�k��,7.4,��
2017/03/23,10:40,1.023,1.669,1.132,1.978,1.369,0.545,1.000,0.928,��,6.4,-
2017/03/23,10:50,1.021,1.669,1.137,1.980,1.368,0.544,0.997,0.929,���k��,5.6,-
2017/03/23,11:00,1.022,1.667,1.134,1.979,1.366,0.544,0.999,0.928,�k��,5.0,-
2017/03/23,11:10,1.022,1.671,1.135,1.977,1.366,0.544,0.999,0.929,���k��,4.5,-
2017/03/23,11:20,1.023,1.671,1.136,1.976,1.369,0.546,1.000,0.929,���k��,4.8,-
2017/03/23,11:30,1.024,1.678,1.136,1.982,1.371,0.548,0.999,0.931,��,5.0,-
2017/03/23,11:40,1.033,1.676,1.137,1.980,1.373,0.547,0.999,0.930,��,4.3,-
2017/03/23,11:50,1.024,1.675,1.136,1.982,1.372,0.547,1.000,0.933,��,4.9,-
2017/03/23,12:00,1.027,1.674,1.138,1.981,1.371,0.546,0.999,0.932,��,3.6,-
2017/03/23,12:10,1.024,1.675,1.136,1.982,1.368,0.547,1.001,0.932,���쐼,5.1,�L
2017/03/23,12:20,1.022,1.674,1.135,1.983,1.367,0.546,1.000,0.932,���k��,2.6,�L
2017/03/23,12:30,1.024,1.672,1.137,1.982,1.366,0.548,1.000,0.930,�k��,2.9,��
2017/03/23,12:40,1.024,1.672,1.136,1.982,1.367,0.548,1.000,0.929,���k��,3.9,��
2017/03/23,12:50,1.023,1.672,1.138,1.979,1.365,0.548,1.001,0.931,�k��,4.4,��
2017/03/23,13:00,1.025,1.674,1.136,1.982,1.368,0.547,1.000,0.929,�k��,3.2,��
2017/03/23,13:10,1.022,1.675,1.136,1.981,1.366,0.549,1.000,0.930,�k�k��,3.9,�L
2017/03/23,13:20,1.023,1.674,1.136,1.982,1.370,0.549,0.998,0.931,�k��,5.3,�L
2017/03/23,13:30,1.024,1.675,1.137,1.980,1.371,0.547,1.000,0.930,�k��,6.1,�L
2017/03/23,13:40,1.027,1.680,1.138,1.986,1.335,0.547,1.000,0.931,�k�k��,5.7,��
2017/03/23,13:50,1.026,1.682,1.139,1.983,1.360,0.546,0.998,0.931,�k��,5.6,��
2017/03/23,14:00,1.025,1.680,1.138,1.982,1.358,0.546,1.001,0.932,�k��,5.1,��
2017/03/23,14:10,1.026,1.680,1.139,1.984,1.368,0.546,1.001,0.932,�k��,6.0,�L
2017/03/23,14:20,1.026,1.681,1.135,1.983,1.372,0.549,1.002,0.933,���k��,4.4,�L
2017/03/23,14:30,1.025,1.679,1.138,1.982,1.372,0.546,0.999,0.933,�k��,5.0,��
2017/03/23,14:40,1.024,1.682,1.136,1.982,1.372,0.547,1.000,0.934,�k��,4.3,��
2017/03/23,14:50,1.025,1.681,1.138,1.980,1.367,0.549,0.998,0.934,���k��,4.8,��
2017/03/23,15:00,1.027,1.681,1.139,1.982,1.370,0.548,0.999,0.932,���k��,3.9,��
2017/03/23,15:10,1.024,1.684,1.138,1.983,1.366,0.547,1.000,0.934,���k��,3.0,��
2017/03/23,15:20,1.026,1.683,1.138,1.985,1.360,0.548,1.000,0.934,��,3.3,��
2017/03/23,15:30,1.027,1.683,1.138,1.986,1.353,0.548,0.999,0.932,��,1.7,��
2017/03/23,15:40,1.025,1.683,1.137,1.986,1.360,0.547,0.999,0.933,��,4.0,��
2017/03/23,15:50,1.025,1.682,1.135,1.983,1.367,0.547,1.000,0.930,��,3.9,��
2017/03/23,16:00,1.025,1.682,1.137,1.984,1.350,0.546,1.000,0.932,���쐼,3.9,��
2017/03/23,16:10,1.026,1.683,1.136,1.984,1.360,0.549,1.002,0.932,��,2.6,��
2017/03/23,16:20,1.026,1.683,1.137,1.983,1.341,0.546,1.004,0.931,��,2.0,��
2017/03/23,16:30,1.026,1.681,1.136,1.982,1.354,0.548,1.003,0.931,�k��,2.5,��
2017/03/23,16:40,1.026,1.681,1.139,1.986,1.371,0.546,1.001,0.932,�k��,1.7,��
2017/03/23,16:50,1.026,1.680,1.139,1.982,1.372,0.547,1.002,0.933,�k�k��,1.2,��
2017/03/23,17:00,1.027,1.682,1.136,1.981,1.373,0.543,1.002,0.931,�k��,1.5,��
2017/03/23,17:10,1.023,1.684,1.137,1.974,1.373,0.541,1.003,0.933,���k��,1.2,�L
2017/03/23,17:20,1.025,1.682,1.137,1.975,1.372,0.541,1.001,0.930,�k��,3.3,�L
2017/03/23,17:30,1.026,1.683,1.138,1.975,1.371,0.537,1.003,0.930,���k��,3.6,��
2017/03/23,17:40,1.025,1.681,1.136,1.975,1.372,0.539,1.003,0.932,���k��,2.8,��
2017/03/23,17:50,1.025,1.683,1.138,1.980,1.373,0.537,1.002,0.931,�k��,3.3,��
2017/03/23,18:00,1.026,1.679,1.138,1.983,1.372,0.538,1.001,0.933,�k�k��,4.1,��
2017/03/23,18:10,1.024,1.680,1.135,1.986,1.373,0.545,1.002,0.930,�k�k��,5.6,��
2017/03/23,18:20,1.024,1.682,1.135,1.984,1.371,0.543,1.003,0.930,�k��,5.6,��
2017/03/23,18:30,1.024,1.682,1.138,1.980,1.372,0.532,1.002,0.930,�k��,6.7,��
2017/03/23,18:40,1.023,1.681,1.136,1.985,1.372,0.538,1.003,0.929,�k��,7.3,��
2017/03/23,18:50,1.022,1.683,1.137,1.980,1.373,0.544,1.003,0.929,�k��,7.4,��
2017/03/23,19:00,1.025,1.682,1.138,1.983,1.371,0.543,1.002,0.931,�k��,7.8,��
2017/03/23,19:10,1.022,1.680,1.135,1.981,1.370,0.544,1.003,0.931,�k��,8.0,��
2017/03/23,19:20,1.019,1.681,1.136,1.983,1.372,0.545,1.002,0.930,�k��,7.3,��
2017/03/23,19:30,1.022,1.678,1.135,1.982,1.374,0.544,1.002,0.930,���k��,7.3,��
2017/03/23,19:40,1.023,1.680,1.136,1.980,1.372,0.544,1.003,0.931,�k��,7.6,��
2017/03/23,19:50,1.021,1.680,1.133,1.983,1.372,0.543,1.002,0.931,�k��,8.1,��
2017/03/23,20:00,1.021,1.681,1.137,1.981,1.370,0.544,1.003,0.930,�k��,7.9,��
2017/03/23,20:10,1.020,1.678,1.135,1.982,1.371,0.543,1.001,0.929,�k��,6.5,��
2017/03/23,20:20,1.021,1.681,1.134,1.981,1.371,0.544,1.002,0.930,�k��,7.9,��
2017/03/23,20:30,1.021,1.682,1.134,1.981,1.369,0.543,1.000,0.929,�k��,6.9,��
2017/03/23,20:40,1.018,1.676,1.133,1.981,1.370,0.543,1.001,0.927,���k��,7.1,��
2017/03/23,20:50,1.021,1.681,1.134,1.983,1.369,0.543,1.001,0.931,���k��,7.7,��
2017/03/23,21:00,1.021,1.678,1.134,1.982,1.370,0.544,1.000,0.930,���k��,7.2,��
2017/03/23,21:10,1.024,1.677,1.132,1.982,1.371,0.543,1.001,0.930,���k��,5.8,��
2017/03/23,21:20,1.021,1.679,1.134,1.979,1.371,0.544,1.002,0.930,���k��,6.3,��
2017/03/23,21:30,1.022,1.678,1.133,1.978,1.371,0.542,1.000,0.928,�k��,7.7,��
2017/03/23,21:40,1.021,1.679,1.133,1.979,1.371,0.541,1.003,0.929,�k��,7.9,��
2017/03/23,21:50,1.020,1.680,1.131,1.981,1.372,0.543,1.001,0.930,�k��,8.4,��
2017/03/23,22:00,1.021,1.682,1.132,1.982,1.372,0.543,1.001,0.928,�k��,7.1,��
2017/03/23,22:10,1.023,1.679,1.133,1.980,1.370,0.542,1.001,0.931,�k��,7.3,��
2017/03/23,22:20,1.023,1.679,1.132,1.980,1.370,0.541,1.001,0.932,�k��,7.4,��
2017/03/23,22:30,1.020,1.679,1.133,1.981,1.370,0.542,1.000,0.932,�k��,6.9,��
2017/03/23,22:40,1.020,1.682,1.134,1.980,1.370,0.543,1.000,0.931,�k��,6.6,��
2017/03/23,22:50,1.020,1.680,1.132,1.982,1.371,0.543,1.001,0.931,�k��,7.1,��
2017/03/23,23:00,1.023,1.678,1.135,1.980,1.371,0.543,1.000,0.929,�k��,7.2,��
2017/03/23,23:10,1.020,1.675,1.131,1.982,1.371,0.542,1.001,0.929,�k��,6.6,��
2017/03/23,23:20,1.020,1.680,1.134,1.980,1.371,0.544,0.998,0.929,�k��,5.4,��
2017/03/23,23:30,1.019,1.677,1.131,1.981,1.371,0.542,1.001,0.931,�k��,5.2,��
2017/03/23,23:40,1.021,1.678,1.132,1.981,1.368,0.543,1.000,0.929,�k��,5.2,��
2017/03/23,23:50,1.022,1.679,1.135,1.981,1.369,0.541,0.999,0.929,�k��,4.9,��
